Time,TemperatureF,DewpointF,PressureIn,WindDirection,WindDirectionDegrees,WindSpeedMPH,WindSpeedGustMPH,Humidity,HourlyPrecipIn,Conditions,Clouds,dailyrainin,SolarRadiationWatts/m^2,SoftwareType,DateUTC
2013-05-12 00:07:00,66.2,34.9,29.75,North,-999,-999.0,-999.0,13,0.00,,,-99.99,0.0,Linux-Irox,2013-05-12 07:07:00,
2013-05-12 00:17:00,66.4,35.1,29.75,North,-999,-999.0,-999.0,13,0.00,,,-99.99,0.0,Linux-Irox,2013-05-12 07:17:00,
2013-05-12 00:27:00,66.0,34.7,29.75,North,-999,-999.0,-999.0,13,0.00,,,-99.99,0.0,Linux-Irox,2013-05-12 07:27:00,
2013-05-12 00:37:00,65.8,34.5,29.75,North,-999,-999.0,-999.0,13,0.00,,,-99.99,0.0,Linux-Irox,2013-05-12 07:37:00,
2013-05-12 00:47:00,65.8,34.5,29.75,North,-999,-999.0,-999.0,13,0.00,,,-99.99,0.0,Linux-Irox,2013-05-12 07:47:00,
2013-05-12 00:57:00,65.8,34.5,29.75,North,-999,-999.0,-999.0,13,0.00,,,-99.99,0.0,Linux-Irox,2013-05-12 07:57:00,
2013-05-12 01:07:00,65.7,34.7,29.76,North,-999,-999.0,-999.0,14,0.00,,,-99.99,0.0,Linux-Irox,2013-05-12 08:07:00,
2013-05-12 01:17:00,65.1,34.2,29.76,North,-999,-999.0,-999.0,14,0.00,,,-99.99,0.0,Linux-Irox,2013-05-12 08:17:00,
2013-05-12 01:27:00,65.1,34.9,29.76,North,-999,-999.0,-999.0,16,0.00,,,-99.99,0.0,Linux-Irox,2013-05-12 08:27:00,
2013-05-12 01:37:00,64.9,34.7,29.76,North,-999,-999.0,-999.0,16,0.00,,,-99.99,0.0,Linux-Irox,2013-05-12 08:37:00,
2013-05-12 01:47:00,64.9,34.7,29.75,North,-999,-999.0,-999.0,16,0.00,,,-99.99,0.0,Linux-Irox,2013-05-12 08:47:00,
2013-05-12 01:57:00,64.8,34.9,29.75,North,-999,-999.0,-999.0,17,0.00,,,-99.99,0.0,Linux-Irox,2013-05-12 08:57:00,
2013-05-12 02:07:00,64.6,34.7,29.76,North,-999,-999.0,-999.0,17,0.00,,,-99.99,0.0,Linux-Irox,2013-05-12 09:07:00,
2013-05-12 02:17:00,64.4,34.5,29.76,North,-999,-999.0,-999.0,17,0.00,,,-99.99,0.0,Linux-Irox,2013-05-12 09:17:00,
2013-05-12 02:27:00,64.2,34.7,29.75,North,-999,-999.0,-999.0,18,0.00,,,-99.99,0.0,Linux-Irox,2013-05-12 09:27:00,
2013-05-12 02:37:00,64.9,34.7,29.75,North,-999,-999.0,-999.0,16,0.00,,,-99.99,0.0,Linux-Irox,2013-05-12 09:37:00,
2013-05-12 02:47:00,64.4,34.2,29.75,North,-999,-999.0,-999.0,16,0.00,,,-99.99,0.0,Linux-Irox,2013-05-12 09:47:00,
2013-05-12 02:57:00,64.4,33.8,29.75,North,-999,-999.0,-999.0,15,0.00,,,-99.99,0.0,Linux-Irox,2013-05-12 09:57:00,
2013-05-12 03:07:00,64.2,33.6,29.75,North,-999,-999.0,-999.0,15,0.00,,,-99.99,0.0,Linux-Irox,2013-05-12 10:07:00,
2013-05-12 03:17:00,64.0,33.4,29.75,North,-999,-999.0,-999.0,15,0.00,,,-99.99,0.0,Linux-Irox,2013-05-12 10:17:00,
2013-05-12 03:27:00,63.9,32.5,29.75,North,-999,-999.0,-999.0,13,0.00,,,-99.99,0.0,Linux-Irox,2013-05-12 10:27:00,
2013-05-12 03:37:00,63.9,32.5,29.75,North,-999,-999.0,-999.0,13,0.00,,,-99.99,0.0,Linux-Irox,2013-05-12 10:37:00,
2013-05-12 03:47:00,63.9,32.5,29.76,North,-999,-999.0,-999.0,13,0.00,,,-99.99,0.0,Linux-Irox,2013-05-12 10:47:00,
2013-05-12 03:57:00,63.7,32.0,29.76,North,-999,-999.0,-999.0,12,0.00,,,-99.99,0.0,Linux-Irox,2013-05-12 10:57:00,
2013-05-12 04:07:00,63.7,31.6,29.75,North,-999,-999.0,-999.0,11,0.00,,,-99.99,0.0,Linux-Irox,2013-05-12 11:07:00,
2013-05-12 04:17:00,63.1,31.1,29.75,North,-999,-999.0,-999.0,11,0.00,,,-99.99,0.0,Linux-Irox,2013-05-12 11:17:00,
2013-05-12 04:27:00,63.1,31.1,29.75,North,-999,-999.0,-999.0,11,0.00,,,-99.99,0.0,Linux-Irox,2013-05-12 11:27:00,
2013-05-12 04:37:00,62.8,30.7,29.75,North,-999,-999.0,-999.0,11,0.00,,,-99.99,0.0,Linux-Irox,2013-05-12 11:37:00,
2013-05-12 04:47:00,63.0,30.9,29.74,North,-999,-999.0,-999.0,11,0.00,,,-99.99,0.0,Linux-Irox,2013-05-12 11:47:00,
2013-05-12 04:57:00,63.3,31.3,29.74,North,-999,-999.0,-999.0,11,0.00,,,-99.99,0.0,Linux-Irox,2013-05-12 11:57:00,
2013-05-12 05:07:00,63.1,29.7,29.74,North,-999,-999.0,-999.0,7,0.00,,,-99.99,0.0,Linux-Irox,2013-05-12 12:07:00,
2013-05-12 05:17:00,63.1,29.7,29.74,North,-999,-999.0,-999.0,7,0.00,,,-99.99,0.0,Linux-Irox,2013-05-12 12:17:00,
2013-05-12 05:27:00,62.8,29.3,29.74,North,-999,-999.0,-999.0,7,0.00,,,-99.99,0.0,Linux-Irox,2013-05-12 12:27:00,
2013-05-12 05:37:00,62.8,29.3,29.74,North,-999,-999.0,-999.0,7,0.00,,,-99.99,0.0,Linux-Irox,2013-05-12 12:37:00,
2013-05-12 05:47:00,62.8,29.3,29.74,North,-999,-999.0,-999.0,7,0.00,,,-99.99,0.0,Linux-Irox,2013-05-12 12:47:00,
2013-05-12 05:57:00,62.4,29.3,29.74,North,-999,-999.0,-999.0,8,0.00,,,-99.99,0.0,Linux-Irox,2013-05-12 12:57:00,
2013-05-12 06:07:00,62.4,29.3,29.74,North,-999,-999.0,-999.0,8,0.00,,,-99.99,0.0,Linux-Irox,2013-05-12 13:07:00,
2013-05-12 06:17:00,62.2,29.1,29.74,North,-999,-999.0,-999.0,8,0.00,,,-99.99,0.0,Linux-Irox,2013-05-12 13:17:00,
2013-05-12 06:27:00,62.4,29.3,29.75,North,-999,-999.0,-999.0,8,0.00,,,-99.99,0.0,Linux-Irox,2013-05-12 13:27:00,
2013-05-12 06:37:00,62.8,29.3,29.75,North,-999,-999.0,-999.0,7,0.00,,,-99.99,0.0,Linux-Irox,2013-05-12 13:37:00,
2013-05-12 06:47:00,62.8,29.3,29.74,North,-999,-999.0,-999.0,7,0.00,,,-99.99,0.0,Linux-Irox,2013-05-12 13:47:00,
2013-05-12 06:57:00,63.5,30.0,29.74,North,-999,-999.0,-999.0,7,0.00,,,-99.99,0.0,Linux-Irox,2013-05-12 13:57:00,
2013-05-12 07:07:00,66.4,32.5,29.74,North,-999,-999.0,-999.0,6,0.00,,,-99.99,0.0,Linux-Irox,2013-05-12 14:07:00,
2013-05-12 07:17:00,67.8,34.0,29.74,North,-999,-999.0,-999.0,6,0.00,,,-99.99,0.0,Linux-Irox,2013-05-12 14:17:00,
2013-05-12 13:46:00,85.6,51.4,29.67,North,-999,-999.0,-999.0,5,0.00,,,-99.99,0.0,Linux-Irox,2013-05-12 20:46:00,
2013-05-12 14:01:00,85.6,51.4,29.67,North,-999,-999.0,-999.0,5,0.00,,,-99.99,0.0,Linux-Irox,2013-05-12 21:01:00,
2013-05-12 14:16:00,86.2,52.0,29.67,North,-999,-999.0,-999.0,5,0.00,,,-99.99,0.0,Linux-Irox,2013-05-12 21:16:00,
2013-05-12 14:31:00,86.7,52.5,29.67,North,-999,-999.0,-999.0,5,0.00,,,-99.99,0.0,Linux-Irox,2013-05-12 21:31:00,
2013-05-12 14:46:00,87.1,52.9,29.67,North,-999,-999.0,-999.0,5,0.00,,,-99.99,0.0,Linux-Irox,2013-05-12 21:46:00,
2013-05-12 15:01:00,86.5,52.3,29.67,North,-999,-999.0,-999.0,5,0.00,,,-99.99,0.0,Linux-Irox,2013-05-12 22:01:00,
2013-05-12 15:16:00,86.7,52.5,29.67,North,-999,-999.0,-999.0,5,0.00,,,-99.99,0.0,Linux-Irox,2013-05-12 22:16:00,
2013-05-12 15:31:00,86.7,52.5,29.66,North,-999,-999.0,-999.0,5,0.00,,,-99.99,0.0,Linux-Irox,2013-05-12 22:31:00,
2013-05-12 15:46:00,86.2,52.0,29.66,North,-999,-999.0,-999.0,5,0.00,,,-99.99,0.0,Linux-Irox,2013-05-12 22:46:00,
2013-05-12 16:01:00,85.5,51.3,29.67,North,-999,-999.0,-999.0,5,0.00,,,-99.99,0.0,Linux-Irox,2013-05-12 23:01:00,
2013-05-12 16:16:00,85.6,51.4,29.67,North,-999,-999.0,-999.0,5,0.00,,,-99.99,0.0,Linux-Irox,2013-05-12 23:16:00,
2013-05-12 16:31:00,84.9,50.7,29.66,North,-999,-999.0,-999.0,5,0.00,,,-99.99,0.0,Linux-Irox,2013-05-12 23:31:00,
2013-05-12 16:46:00,84.9,50.7,29.66,North,-999,-999.0,-999.0,5,0.00,,,-99.99,0.0,Linux-Irox,2013-05-12 23:46:00,
2013-05-12 17:01:00,84.2,50.0,29.66,North,-999,-999.0,-999.0,5,0.00,,,-99.99,0.0,Linux-Irox,2013-05-13 00:01:00,
2013-05-12 17:16:00,83.8,49.6,29.66,North,-999,-999.0,-999.0,5,0.00,,,-99.99,0.0,Linux-Irox,2013-05-13 00:16:00,
2013-05-12 17:31:00,82.9,48.7,29.66,North,-999,-999.0,-999.0,5,0.00,,,-99.99,0.0,Linux-Irox,2013-05-13 00:31:00,
2013-05-12 17:46:00,82.6,48.4,29.64,North,-999,-999.0,-999.0,5,0.00,,,-99.99,0.0,Linux-Irox,2013-05-13 00:46:00,
2013-05-12 18:01:00,82.2,48.0,29.64,North,-999,-999.0,-999.0,5,0.00,,,-99.99,0.0,Linux-Irox,2013-05-13 01:01:00,
2013-05-12 18:16:00,81.3,47.1,29.64,North,-999,-999.0,-999.0,5,0.00,,,-99.99,0.0,Linux-Irox,2013-05-13 01:16:00,
2013-05-12 18:31:00,80.4,46.2,29.64,North,-999,-999.0,-999.0,5,0.00,,,-99.99,0.0,Linux-Irox,2013-05-13 01:31:00,
2013-05-12 18:46:00,80.1,45.9,29.64,North,-999,-999.0,-999.0,5,0.00,,,-99.99,0.0,Linux-Irox,2013-05-13 01:46:00,
2013-05-12 19:01:00,78.3,44.1,29.64,North,-999,-999.0,-999.0,5,0.00,,,-99.99,0.0,Linux-Irox,2013-05-13 02:01:00,
2013-05-12 19:16:00,76.5,42.3,29.64,North,-999,-999.0,-999.0,5,0.00,,,-99.99,0.0,Linux-Irox,2013-05-13 02:16:00,
2013-05-12 19:31:00,75.0,40.8,29.64,North,-999,-999.0,-999.0,5,0.00,,,-99.99,0.0,Linux-Irox,2013-05-13 02:31:00,
2013-05-12 19:46:00,73.8,39.6,29.65,North,-999,-999.0,-999.0,5,0.00,,,-99.99,0.0,Linux-Irox,2013-05-13 02:46:00,
2013-05-12 20:01:00,72.5,38.3,29.64,North,-999,-999.0,-999.0,5,0.00,,,-99.99,0.0,Linux-Irox,2013-05-13 03:01:00,
2013-05-12 20:16:00,71.1,36.9,29.64,North,-999,-999.0,-999.0,5,0.00,,,-99.99,0.0,Linux-Irox,2013-05-13 03:16:00,